GFSFLT1_sfc_wetblb_171.txt.gz
Wetbulb
72.46 71.71 71.86 71.74 72.29 72.59 72.43 71.61 70.82 70.59 70.54 69.80 69.55 69.20 68.91 68.06 67.97 67.13 68.03 67.28 69.51 68.42 68.98 67.59 66.65 66.80 66.70 66.82 66.37 67.31 67.97 67.66 67.37
73.13 72.61 72.51 71.50 72.01 72.32 72.48 72.00 70.81 70.75 70.78 70.09 69.45 68.83 68.61 67.03 67.09 66.75 66.73 66.99 67.56 66.99 67.39 68.06 68.10 67.66 66.42 66.95 66.94 66.38 65.55 65.38 65.77
73.14 72.86 72.48 71.95 71.86 72.32 72.46 72.43 71.30 70.69 70.61 70.57 70.63 69.86 67.28 66.05 66.49 66.97 66.91 68.43 67.35 67.18 67.45 68.77 67.46 67.24 66.36 66.98 66.99 66.93 66.48 66.04 65.58
71.93 72.33 72.46 72.12 72.06 72.27 72.51 72.43 72.06 71.26 70.72 71.19 70.75 69.54 67.33 66.05 66.78 66.65 66.72 68.25 68.12 68.39 67.63 68.05 67.80 67.32 67.18 66.18 67.17 66.29 65.77 65.66 65.48
71.04 71.00 70.97 71.76 71.71 71.81 71.91 72.12 71.86 71.75 70.84 70.62 70.45 68.82 67.38 66.84 66.39 67.02 66.77 69.29 68.33 69.50 68.79 68.05 67.68 67.90 67.48 67.01 66.60 65.88 65.67 65.74 65.56
66.94 68.57 69.26 70.21 71.07 71.33 71.45 71.53 71.47 70.39 69.78 69.71 69.33 68.19 68.48 67.68 67.29 67.22 68.55 69.08 68.33 69.10 69.56 69.02 68.17 67.67 67.38 67.45 66.31 66.12 65.89 66.18 66.05
62.07 62.26 66.28 68.97 69.58 70.18 71.05 71.14 70.49 69.15 69.57 70.37 68.29 68.47 68.16 68.16 68.02 67.56 68.90 69.34 68.62 68.27 70.06 70.11 69.58 69.06 68.18 67.68 66.88 66.40 66.35 66.88 66.94
61.14 63.22 64.85 67.00 65.72 70.74 70.87 71.20 70.90 70.11 69.62 69.47 70.02 68.63 68.42 68.69 68.31 67.97 68.47 69.42 69.07 68.67 69.26 70.29 69.83 68.91 69.12 67.87 67.02 66.85 66.96 67.18 66.82
58.11 59.09 61.64 63.30 64.96 67.24 69.80 70.95 71.19 70.53 70.63 69.68 69.13 68.64 68.22 68.54 68.90 68.03 66.48 68.69 68.79 69.14 68.99 70.15 70.20 69.04 68.59 68.14 68.43 67.44 67.39 67.03 66.45
57.41 57.37 58.38 59.39 60.60 62.67 65.08 66.68 68.74 69.75 69.96 69.97 69.74 69.15 67.93 67.92 67.81 68.26 63.92 66.48 68.28 68.78 69.31 69.39 69.67 69.55 69.20 68.64 69.14 68.58 68.36 67.92 66.58
57.34 57.00 57.24 57.46 58.44 59.09 60.22 63.11 65.24 66.54 69.13 69.09 69.41 69.09 69.20 68.99 68.29 67.66 66.50 64.81 66.57 68.01 68.87 69.60 69.80 70.41 70.16 69.35 69.26 69.04 68.89 68.26 67.91
57.12 56.99 57.22 57.13 57.28 56.97 57.72 58.17 60.03 62.90 65.12 66.04 68.26 68.36 68.85 68.94 68.91 68.76 67.70 66.07 63.85 66.18 67.98 69.13 70.35 70.79 71.05 70.02 69.65 69.20 68.89 68.44 67.70
56.94 57.04 56.96 57.53 57.49 57.26 57.13 57.04 56.89 57.62 59.76 62.79 64.09 65.55 67.81 68.25 68.04 68.69 68.61 68.35 67.40 63.62 65.82 67.24 69.08 70.26 71.15 70.35 70.31 69.93 68.97 68.40 67.85
56.45 56.24 56.78 57.38 57.49 57.12 56.80 56.13 56.68 56.29 57.08 58.16 60.02 63.35 65.82 66.78 67.46 67.62 67.68 68.19 67.44 67.52 63.74 63.52 64.98 67.12 69.55 70.85 70.65 70.91 69.22 68.58 68.19
56.04 55.93 56.05 56.45 56.06 56.23 56.67 55.93 56.61 56.22 56.46 55.89 56.01 58.58 60.65 62.19 64.26 66.40 66.72 67.35 67.27 67.52 67.04 63.52 62.86 63.31 66.54 69.06 70.55 70.75 70.28 68.86 68.59
53.39 54.68 55.27 55.88 55.09 54.91 54.96 55.20 55.38 55.20 56.28 54.85 55.37 56.29 57.46 57.74 59.19 62.34 64.26 65.63 66.31 67.17 66.46 65.85 64.94 63.40 63.11 65.28 67.75 69.44 70.12 69.76 69.02
49.61 49.96 52.00 53.95 54.57 54.56 54.43 54.29 53.69 54.49 55.54 52.97 53.19 50.32 53.37 56.23 57.37 57.97 58.73 60.16 64.39 65.80 66.79 66.72 65.47 65.12 64.64 61.98 63.54 65.48 68.48 69.92 70.12
50.76 50.84 50.87 51.06 52.39 52.27 53.46 54.39 54.13 52.19 54.35 55.03 52.53 49.04 48.53 52.19 55.60 56.59 57.63 58.70 59.81 61.43 64.72 65.97 65.78 65.26 64.83 63.59 61.90 62.08 63.91 66.32 69.08
49.12 48.45 47.93 48.96 50.35 50.95 52.26 53.82 54.07 53.66 51.62 53.73 53.94 54.29 52.89 48.62 47.89 53.42 54.81 56.36 57.38 61.14 63.66 64.01 64.25 64.65 65.05 63.58 62.07 60.77 61.77 65.01 66.94
47.72 46.71 46.13 47.15 49.45 50.86 51.90 52.70 53.16 53.68 52.62 52.20 52.50 52.46 52.08 51.64 49.31 47.84 51.40 54.69 55.80 56.74 61.58 62.62 63.25 63.63 63.65 64.12 63.22 61.21 62.30 64.40 65.74

GFSFLT1_sfc_wetblb_174.txt.gz
Wetbulb
73.13 72.93 71.98 72.31 72.40 73.06 73.09 72.40 71.61 71.40 71.27 70.13 69.95 69.52 69.56 68.86 64.93 64.17 65.87 65.59 70.03 69.38 69.04 67.74 67.34 67.80 67.93 66.74 66.60 68.52 68.52 68.05 67.12
73.24 72.96 72.57 72.36 72.20 72.37 72.60 72.48 71.56 71.60 71.31 70.58 69.94 70.19 69.02 66.53 63.26 63.00 62.42 64.94 69.40 68.51 68.92 68.17 67.65 67.37 66.64 66.93 66.63 65.57 65.64 65.44 66.20
72.93 72.66 72.76 72.54 72.01 72.23 72.37 72.84 72.19 71.66 70.96 70.80 70.76 69.75 67.80 65.30 62.94 63.04 62.72 68.24 68.28 67.71 67.63 68.66 68.33 67.99 66.31 66.63 66.49 66.63 65.78 66.50 66.24
71.91 72.28 72.40 72.77 72.40 72.18 72.39 72.52 72.17 72.07 71.29 71.20 70.73 69.58 68.11 64.37 63.66 64.76 63.41 68.58 68.79 68.05 67.79 69.25 68.59 67.66 67.12 66.77 67.63 66.87 66.51 65.74 65.28
70.97 70.76 70.81 71.78 72.10 71.81 71.62 72.00 72.17 72.04 71.31 70.71 70.26 69.19 68.08 64.97 63.90 64.12 63.61 69.42 69.20 69.08 68.47 68.83 68.80 68.20 68.16 67.54 67.20 67.12 65.90 65.87 65.80
65.32 65.17 68.19 70.07 70.91 71.58 71.77 71.51 71.46 70.68 69.78 69.74 69.20 68.28 67.70 65.63 65.51 65.05 67.14 70.14 69.34 68.91 70.05 70.05 68.60 68.32 68.38 68.59 67.58 66.49 66.14 66.09 66.09
58.96 59.69 62.97 66.62 68.50 69.85 70.98 71.45 70.60 69.22 68.71 68.73 68.12 67.89 67.49 66.44 65.81 65.50 68.24 70.55 69.93 69.17 70.23 70.71 70.18 69.52 69.26 68.82 68.23 66.65 66.37 66.19 66.23
55.28 56.41 59.86 62.67 63.71 67.33 68.91 68.86 69.25 68.56 67.66 67.20 67.61 67.67 66.66 66.27 66.22 66.69 68.35 70.50 70.39 69.51 69.60 70.66 70.70 70.24 69.83 69.16 68.00 67.24 66.79 66.67 66.62
52.40 52.46 53.67 54.75 56.68 60.70 66.10 67.58 69.25 68.61 68.25 67.34 67.09 67.77 67.09 67.14 67.32 66.41 66.78 69.39 71.00 70.29 69.92 70.12 70.77 70.21 69.85 68.84 69.00 68.52 67.63 66.76 67.81
51.80 51.74 51.89 52.20 53.15 53.40 54.33 58.94 65.08 67.42 67.36 67.74 67.31 67.05 67.31 67.72 67.50 67.24 64.40 67.47 69.59 70.70 70.34 69.46 69.50 69.83 69.51 69.26 69.52 69.10 68.82 67.92 66.72
52.49 52.29 51.92 51.71 52.11 52.50 52.57 52.86 54.32 58.65 64.30 66.19 67.07 67.09 66.67 66.59 67.29 67.29 66.64 65.40 67.80 69.62 70.58 69.93 70.24 70.06 69.92 70.01 70.01 69.54 69.31 68.78 68.35
53.03 52.72 52.65 52.74 52.48 52.49 52.07 52.00 52.32 52.22 54.92 57.54 64.36 66.63 66.76 66.39 66.17 66.80 67.21 64.93 64.47 67.29 69.99 70.24 70.48 70.85 70.82 70.91 70.94 70.09 69.32 69.05 68.74
52.77 52.87 52.98 53.71 53.33 52.74 52.02 51.52 51.23 51.17 51.42 52.06 55.39 60.39 63.17 65.16 66.03 66.31 65.99 66.43 65.74 64.68 67.00 68.39 69.49 70.08 70.83 70.21 70.74 70.82 69.66 68.88 68.56
52.49 52.58 52.69 53.23 52.96 52.75 52.85 52.36 51.21 50.74 51.07 52.30 53.26 53.62 55.59 61.27 64.03 64.02 65.01 65.08 65.57 65.67 63.58 64.58 65.81 67.37 69.32 70.63 70.79 71.00 70.23 69.15 68.47
48.77 51.08 51.91 52.54 52.12 51.77 51.83 51.38 51.88 51.38 51.43 53.59 53.61 51.78 53.07 54.61 55.64 59.94 64.59 65.15 65.34 65.33 65.01 63.42 63.15 63.65 66.57 68.89 70.24 70.85 70.32 69.67 68.95
45.91 45.96 47.50 50.18 50.65 50.80 51.23 50.62 50.21 50.09 51.33 50.24 50.26 51.51 52.72 53.38 53.84 54.25 54.83 57.79 63.53 64.73 65.11 65.30 63.23 62.86 63.54 65.80 67.73 69.19 70.44 69.94 69.56
48.08 47.34 47.65 47.66 48.20 49.18 50.11 50.15 49.68 49.80 50.84 48.47 47.98 46.02 48.19 51.04 53.04 53.94 54.32 54.17 55.76 58.70 64.28 64.56 64.99 63.86 62.05 61.81 64.01 65.72 68.11 69.85 70.17
47.94 46.60 45.86 45.37 46.51 47.42 49.73 50.93 51.19 49.46 49.63 50.08 48.18 45.94 44.06 47.23 50.06 50.68 51.32 51.59 52.99 55.29 56.68 62.64 64.38 64.40 64.15 63.19 61.60 61.85 63.89 66.70 69.11
47.00 46.24 44.84 44.10 45.94 48.13 48.42 51.53 51.23 51.50 49.90 49.62 51.82 49.57 50.38 46.85 44.91 48.45 51.07 52.50 52.45 52.25 53.03 57.21 61.46 62.87 63.07 61.79 60.56 60.20 61.39 64.31 66.25
45.84 46.55 46.01 44.27 46.94 47.74 48.96 50.18 50.75 51.21 48.94 49.60 48.15 48.64 50.16 50.37 47.66 45.44 47.80 48.97 51.37 52.53 52.77 53.32 54.20 58.92 60.82 61.29 61.04 60.28 62.10 64.42 65.83

GFSFLT1_sfc_wetblb_177.txt.gz
Wetbulb
73.15 73.38 72.48 71.69 72.18 72.13 72.67 72.70 71.66 71.74 71.09 70.34 70.23 69.83 69.87 69.08 65.09 63.13 64.27 64.13 68.97 69.15 68.90 68.26 68.96 68.95 67.96 66.94 67.76 68.23 68.69 68.10 66.93
72.76 73.05 73.02 72.41 72.23 71.84 72.43 72.59 71.96 71.88 71.32 70.67 70.23 70.64 69.38 66.93 63.96 62.64 61.86 66.21 70.26 70.39 69.17 68.03 67.66 67.72 67.63 67.01 65.99 66.17 65.76 65.38 65.91
72.81 72.60 72.64 73.00 72.64 71.98 72.36 72.74 72.75 72.26 71.25 70.66 71.18 70.21 68.44 66.15 63.40 62.49 61.72 66.36 69.94 69.22 69.50 68.94 68.42 68.17 67.23 66.83 66.61 66.33 66.07 66.00 65.97
71.69 72.52 72.40 72.22 72.26 72.22 72.32 72.44 72.94 72.72 71.96 71.32 70.88 69.64 68.10 65.12 63.27 63.53 62.60 68.07 69.71 69.10 68.41 68.44 69.13 68.60 67.40 67.23 67.32 67.05 66.70 66.79 65.76
67.70 70.24 70.68 71.48 71.56 71.74 71.79 71.92 71.90 72.38 71.70 71.08 70.33 69.12 67.99 66.11 64.77 64.23 62.95 67.26 69.88 69.53 68.61 68.42 69.55 68.93 67.86 67.88 68.07 68.30 66.73 66.02 65.95
62.70 64.53 65.06 68.37 70.18 71.18 71.44 71.66 71.39 70.65 69.79 70.04 69.30 67.97 68.20 66.22 65.78 65.49 66.80 67.98 69.70 69.98 70.26 69.67 69.32 69.10 69.05 69.27 68.14 67.72 67.00 66.20 66.16
57.81 57.69 61.58 64.13 65.33 67.62 70.23 70.92 70.25 68.85 68.58 68.24 68.12 68.14 67.41 66.29 66.65 65.98 67.62 68.87 69.63 71.04 70.77 70.71 70.25 69.91 69.73 69.50 68.83 68.38 67.07 66.45 66.27
52.29 51.67 52.29 54.88 60.99 62.34 66.25 67.53 68.39 68.31 67.86 67.40 67.19 67.66 66.92 66.93 66.67 66.71 67.57 69.25 70.17 71.56 70.98 70.87 71.07 70.65 70.04 69.71 68.85 68.78 66.97 66.46 66.38
49.73 49.44 50.11 49.97 51.21 51.30 54.44 61.98 66.72 67.11 67.62 67.79 66.07 66.54 66.99 66.85 66.35 66.39 66.02 68.39 71.16 72.04 71.65 70.74 70.90 70.85 70.33 69.49 69.44 68.85 68.59 67.34 66.66
50.61 50.36 50.41 50.03 50.09 49.83 49.76 50.29 52.75 57.12 63.98 66.61 66.91 67.25 67.15 66.93 66.57 66.70 64.52 66.43 69.52 71.11 71.71 70.73 69.72 69.93 70.08 69.91 69.97 69.40 69.11 68.47 67.91
51.64 51.40 51.64 51.47 51.43 51.12 49.93 49.65 49.50 50.01 52.40 57.13 63.39 65.92 66.36 66.30 66.82 66.79 66.23 65.31 67.82 69.70 71.57 71.43 70.72 70.09 69.81 70.26 70.25 69.74 69.48 69.16 68.54
51.20 51.40 51.56 51.95 52.07 52.16 51.66 51.06 50.64 50.04 51.09 49.86 52.51 58.82 64.21 65.52 65.31 66.30 66.76 65.78 64.44 67.26 70.42 70.57 71.16 70.86 70.42 70.63 70.95 70.34 69.85 69.33 69.09
51.00 51.18 51.36 52.12 52.19 51.97 51.47 50.77 50.32 49.74 49.55 49.07 50.53 50.69 54.41 60.22 63.55 65.20 65.45 66.06 65.75 64.56 66.64 68.11 69.83 70.26 70.57 70.39 70.82 70.62 69.95 69.46 69.19
46.49 49.07 50.49 51.35 51.36 51.38 51.49 51.47 50.45 49.84 49.91 50.78 51.25 50.83 50.66 51.35 55.78 58.49 62.25 63.97 64.56 64.22 63.92 64.28 65.23 66.87 69.11 70.45 70.63 70.78 69.92 69.44 69.37
44.55 45.01 45.04 47.01 48.99 49.86 50.38 49.51 50.01 49.80 49.80 52.15 52.19 50.76 51.73 51.76 51.24 51.95 54.55 57.12 62.31 63.81 64.16 63.66 62.84 63.28 66.08 68.47 69.21 70.32 69.96 69.17 69.21
44.63 45.38 46.18 46.49 45.74 46.72 48.61 49.07 48.99 48.86 49.71 48.49 48.77 49.23 50.42 50.79 51.79 51.65 51.03 51.76 53.40 59.47 63.07 63.54 63.10 63.47 63.79 65.66 67.29 68.81 69.58 69.45 69.10
47.23 45.67 45.26 44.80 44.54 45.03 46.56 47.88 48.03 48.68 49.52 47.01 46.82 44.52 46.75 48.82 50.67 50.94 51.79 51.31 51.99 52.65 54.38 60.90 62.80 62.57 62.49 62.06 64.07 65.84 67.95 68.82 69.78
46.21 45.06 43.96 43.10 43.38 44.15 45.35 46.97 47.69 47.81 51.06 49.38 48.50 46.53 45.08 47.65 48.70 49.09 49.42 49.82 50.22 50.83 51.76 53.71 58.32 60.89 61.17 62.46 61.48 61.67 63.82 66.59 67.89
45.70 45.24 44.17 43.28 43.63 43.99 46.19 48.53 48.44 50.00 48.76 50.92 50.77 48.49 49.66 46.49 45.21 47.11 48.70 49.38 49.84 49.91 50.33 51.57 54.47 55.39 57.44 59.34 59.55 60.28 61.28 64.13 66.15
45.11 45.26 45.16 43.99 43.96 44.35 44.95 46.35 47.58 50.16 49.55 48.84 47.25 46.88 46.73 46.52 44.55 42.81 44.40 47.24 48.45 49.09 49.57 49.90 50.74 52.43 54.39 56.23 58.44 59.69 61.71 63.98 64.40

GFSFLT1_sfc_wetblb_180.txt.gz
Wetbulb
73.11 73.07 73.21 72.01 72.01 71.57 72.31 72.55 71.95 71.78 71.08 70.41 70.45 70.10 70.16 69.21 64.91 62.69 62.36 64.07 68.13 69.15 68.77 68.65 69.27 68.68 68.24 68.34 67.69 68.04 68.80 67.84 66.77
72.75 72.61 72.90 72.44 72.21 71.34 71.77 72.60 72.24 72.13 71.43 70.66 70.34 70.82 69.71 66.90 63.84 62.62 61.84 62.88 69.58 69.70 69.80 68.78 68.79 68.98 67.94 67.45 67.01 68.66 67.76 66.95 66.88
72.32 72.55 72.45 72.22 72.49 72.04 71.52 72.18 72.69 72.76 71.63 70.96 71.10 70.45 69.02 66.77 64.36 63.02 61.54 63.58 70.05 69.92 69.89 69.07 68.43 68.16 67.97 67.75 67.26 66.35 66.13 65.78 66.49
67.34 71.41 72.39 72.63 72.03 72.21 72.05 71.90 72.06 72.47 72.12 71.64 70.82 70.04 68.59 66.11 63.81 63.25 62.01 65.06 68.75 70.05 69.74 69.48 69.04 68.70 68.10 67.57 67.11 66.89 66.94 66.46 66.69
63.05 67.85 69.72 70.95 71.48 71.37 71.51 71.54 71.46 71.56 71.44 70.87 70.19 69.10 68.24 66.05 64.91 64.57 63.20 66.50 68.35 70.04 70.49 69.17 68.95 68.94 68.86 67.83 67.72 67.39 67.33 67.11 66.24
55.77 59.92 62.14 64.31 66.09 67.50 69.22 70.79 70.87 69.88 69.31 69.76 69.47 68.07 68.02 66.35 66.18 66.04 66.92 68.30 68.88 69.33 70.97 70.16 68.86 69.04 69.33 69.06 68.65 68.28 68.27 66.73 66.31
55.80 55.21 58.50 58.16 60.42 63.34 65.64 68.15 69.37 68.47 68.00 67.82 67.89 68.18 67.39 66.59 67.06 66.77 67.90 69.25 69.99 69.53 71.08 70.54 70.19 70.25 70.38 69.63 68.72 67.78 67.71 67.38 66.54
49.99 49.32 49.57 49.67 54.15 52.30 55.50 61.58 64.96 65.96 66.67 66.86 67.01 67.42 66.89 66.93 66.86 67.29 67.93 69.04 70.11 70.18 71.10 70.93 70.51 70.48 70.40 70.12 68.97 69.18 68.66 68.35 66.76
49.13 49.02 49.44 49.08 49.08 48.86 49.00 49.74 51.86 54.56 63.05 65.64 65.65 65.85 66.42 67.47 67.35 66.49 66.32 68.34 69.70 70.34 70.97 71.49 71.04 70.59 70.48 70.19 70.02 69.62 69.32 68.72 66.82
50.23 50.07 50.28 50.21 50.15 49.65 49.20 48.64 48.89 49.33 50.66 55.78 63.21 65.16 65.08 66.09 66.76 66.63 64.43 66.15 68.23 69.82 70.75 71.44 71.95 70.58 70.26 70.45 70.33 69.84 69.55 68.91 68.50
50.53 50.52 50.85 50.88 51.22 51.15 50.27 49.59 49.02 48.80 48.27 49.49 51.17 55.81 62.24 64.70 65.80 66.13 66.02 65.59 66.69 68.34 69.75 70.61 71.68 71.52 70.55 70.22 70.46 70.18 69.86 69.33 69.01
49.77 49.96 50.35 50.86 51.18 51.42 51.24 50.83 50.47 49.59 50.27 48.44 49.04 49.93 52.05 58.93 62.76 64.47 65.44 65.70 64.59 66.52 69.12 70.06 70.53 70.85 70.67 70.57 70.87 70.55 70.03 69.76 69.23
46.18 47.29 48.56 49.94 50.32 50.59 50.56 50.36 49.95 49.49 49.26 48.60 49.32 49.44 49.80 50.85 53.46 57.55 62.00 63.96 65.24 64.74 66.29 67.78 68.97 69.89 70.42 70.06 70.38 70.49 69.70 69.31 69.26
42.98 43.94 44.28 45.18 46.88 47.96 49.30 49.69 49.17 48.68 48.92 49.83 50.37 49.84 49.54 49.79 52.27 51.98 53.23 55.54 61.12 63.09 63.82 64.04 65.08 66.32 68.34 69.35 69.83 70.17 69.74 68.97 69.06
42.99 43.86 44.28 45.43 45.24 45.61 46.76 47.28 48.45 48.36 48.53 50.81 50.66 49.60 50.19 50.49 49.91 49.80 51.66 51.70 53.04 56.49 60.61 62.07 62.06 62.92 65.50 67.27 68.14 68.79 69.62 69.02 68.78
43.45 44.91 45.12 44.86 43.75 43.51 44.77 46.64 47.28 47.63 48.61 47.48 47.87 48.30 49.84 49.27 49.75 50.01 49.74 50.70 51.44 51.48 52.81 57.60 60.97 62.10 63.80 65.09 66.61 67.16 68.01 68.63 68.18
46.52 43.90 43.64 42.99 42.49 42.43 43.59 44.99 45.71 47.27 48.30 46.10 45.85 43.62 46.08 48.01 49.49 49.19 50.11 49.35 50.20 50.87 51.97 51.91 54.44 59.14 60.61 60.95 63.50 64.90 66.10 66.68 67.21
45.10 44.07 43.07 42.49 42.35 42.36 43.33 45.10 45.69 45.94 47.64 49.20 48.73 45.76 44.37 47.02 47.73 48.06 48.12 48.35 48.64 49.31 50.25 51.49 52.50 54.10 54.90 57.02 59.39 61.34 62.85 65.13 66.24
44.81 44.59 43.72 43.11 42.91 42.42 43.43 46.02 45.67 46.66 45.92 48.00 50.78 49.54 48.72 46.20 43.07 46.13 47.55 47.58 48.34 48.11 48.64 49.64 50.99 51.73 52.36 54.53 55.18 57.65 60.14 61.60 63.08
44.07 44.41 44.21 44.86 44.02 43.55 43.43 44.23 45.02 46.64 47.00 48.85 48.36 45.93 45.69 45.41 43.21 41.76 43.51 46.86 47.28 47.80 48.02 48.37 48.91 50.16 50.75 51.07 53.10 56.44 57.41 58.31 59.51

GFSFLT1_sfc_wetblb_183.txt.gz
Wetbulb
72.61 72.88 73.06 72.58 71.97 71.51 71.33 72.26 72.23 71.92 71.22 70.51 70.21 70.20 70.26 69.42 64.54 62.97 62.47 63.80 67.19 68.96 68.58 68.91 68.99 68.32 67.75 67.20 67.44 68.48 68.74 68.92 67.93
72.39 72.46 72.25 72.08 72.33 71.60 71.12 71.46 72.25 72.34 71.70 70.91 70.42 70.79 69.93 67.00 63.57 62.46 61.63 61.60 68.47 69.67 69.25 68.79 68.71 69.13 67.97 67.63 67.32 67.76 68.43 67.52 66.30
66.84 69.61 71.41 71.63 71.94 72.04 71.84 71.57 71.87 72.29 71.73 71.43 71.22 70.52 69.19 67.21 64.56 63.35 61.85 63.39 67.59 70.15 69.88 69.82 69.02 68.97 68.68 67.94 67.39 67.86 67.38 66.16 66.00
63.84 65.86 68.68 70.94 71.06 71.25 71.34 71.54 71.45 71.67 71.59 71.39 70.70 69.89 68.86 66.75 65.04 63.88 61.74 64.37 67.55 69.44 70.22 69.90 69.16 68.75 68.43 68.17 67.81 67.57 66.60 66.05 66.28
59.42 60.43 61.77 63.17 64.09 65.74 67.22 69.59 70.74 70.93 70.78 70.53 69.84 68.86 68.37 66.85 65.29 64.35 62.99 66.33 67.73 68.62 70.00 70.16 69.82 69.24 68.82 68.39 67.79 67.41 67.11 67.07 66.91
54.26 57.40 59.44 60.67 61.19 61.94 64.31 66.26 68.54 68.93 68.43 69.12 68.86 67.74 67.69 66.56 66.08 65.83 66.87 68.40 69.43 69.17 69.26 70.99 70.17 69.63 69.63 69.60 68.55 67.73 67.77 67.71 66.91
53.92 53.25 56.20 56.81 57.65 57.75 59.12 59.58 63.30 66.07 66.21 66.95 67.33 67.17 67.05 66.45 66.73 66.66 67.93 69.40 70.47 70.18 70.00 70.42 70.67 70.32 70.05 70.20 69.14 68.10 68.31 68.77 67.25
49.54 49.07 49.26 49.17 52.98 50.23 51.35 50.94 52.85 52.50 59.30 64.64 65.47 65.92 65.73 67.27 67.10 67.30 68.12 69.34 70.72 70.84 70.56 70.96 70.51 70.72 70.47 70.81 70.06 69.34 69.07 68.97 68.58
48.92 48.92 49.32 49.14 49.21 48.69 48.96 48.61 49.45 50.17 50.80 52.25 60.81 64.03 65.73 66.24 66.31 66.78 66.58 68.51 70.11 70.90 70.95 71.08 71.05 70.96 70.34 70.18 70.56 69.91 69.73 68.99 68.71
49.25 49.39 49.77 49.86 50.11 49.78 49.33 48.94 48.93 48.59 48.94 49.64 50.81 55.51 61.37 63.60 66.00 66.47 64.67 66.38 68.14 69.45 70.13 70.66 70.76 70.55 70.54 70.38 70.20 70.03 69.95 69.77 69.12
49.41 49.27 49.62 49.87 50.31 50.47 50.06 49.66 49.24 48.89 48.15 48.51 48.89 49.19 51.01 55.64 61.45 64.52 65.05 65.58 66.77 68.12 69.56 69.89 70.17 70.37 70.55 70.73 70.47 70.16 70.11 69.94 69.68
46.91 47.05 47.36 48.38 48.51 48.90 49.76 49.92 50.12 49.34 50.01 48.31 48.87 48.90 48.87 50.70 52.79 58.10 62.22 63.77 64.39 65.80 67.74 68.93 68.94 68.98 69.78 70.30 70.95 70.22 70.13 69.92 69.68
42.03 43.27 43.42 44.37 45.78 46.65 47.16 48.57 48.58 48.57 48.50 47.97 48.73 48.80 48.96 49.00 49.34 51.10 54.05 59.10 61.34 62.64 64.69 65.46 66.74 67.91 68.67 69.63 70.19 70.61 69.68 69.22 69.25
41.90 42.00 42.98 44.43 44.96 44.96 45.77 46.22 47.09 47.16 47.70 48.89 49.33 49.20 49.06 49.23 51.17 49.65 50.74 51.53 53.59 56.84 60.01 61.98 63.19 64.29 65.63 66.98 68.35 68.98 69.66 68.04 67.70
41.61 43.48 44.07 44.38 43.56 43.39 43.68 44.07 46.31 46.88 47.36 49.63 49.55 48.65 49.26 49.45 48.91 48.77 50.26 49.80 50.74 51.13 53.90 56.38 58.63 61.98 63.68 64.28 64.34 64.89 66.19 67.53 67.93
42.93 44.08 43.39 43.08 42.03 41.44 42.47 43.82 45.38 45.62 47.21 46.35 46.50 47.36 48.27 47.88 48.51 48.85 48.84 49.82 50.43 50.49 50.80 51.73 54.42 57.98 61.88 63.42 64.08 64.30 65.00 65.09 65.63
45.42 43.02 42.69 42.23 41.59 41.58 42.30 43.13 44.06 45.33 47.09 45.25 44.72 42.68 44.62 47.42 48.43 48.04 48.91 47.91 48.87 49.57 50.41 50.41 51.13 53.00 54.89 55.73 58.55 59.31 60.22 63.46 65.25
44.45 43.37 42.47 42.15 41.94 41.51 41.97 43.26 44.31 45.29 46.12 46.79 46.49 43.62 41.96 45.17 46.62 47.18 46.97 47.09 47.36 47.94 48.93 49.93 50.58 51.05 50.92 53.06 53.90 56.52 58.72 59.51 62.00
43.92 43.76 43.12 42.69 42.74 42.02 42.27 44.92 43.74 44.30 44.04 46.75 48.83 47.96 47.13 45.27 42.21 45.36 46.36 46.75 47.50 46.87 47.30 48.16 49.42 50.02 50.27 51.84 53.05 55.00 57.08 57.68 59.34
42.96 43.32 43.05 43.39 43.81 43.96 43.02 43.33 43.35 44.58 45.02 45.51 47.78 47.75 46.80 44.13 44.38 41.76 42.38 45.68 46.36 47.27 47.23 47.39 47.61 48.61 49.12 49.30 50.89 54.35 55.18 56.37 57.40

GFSFLT1_sfc_wetblb_186.txt.gz
Wetbulb
72.01 72.06 72.17 72.02 71.98 71.51 70.96 71.15 72.16 72.26 71.71 70.91 70.33 70.16 70.35 69.35 64.72 63.30 62.53 62.97 66.31 69.01 68.48 68.65 69.11 68.17 67.77 67.29 68.21 68.70 69.05 68.90 68.04
67.93 68.53 71.02 71.64 71.68 71.56 71.56 71.30 71.22 72.17 71.60 71.28 71.06 70.86 70.04 67.25 63.81 62.54 61.75 61.42 66.93 69.22 69.44 69.01 68.89 69.05 68.50 67.73 67.62 67.83 68.36 68.33 66.59
64.70 65.43 67.82 69.95 70.84 70.87 70.85 71.04 71.46 71.21 71.34 71.23 71.05 70.48 69.23 67.44 64.83 63.15 62.25 63.52 66.91 69.10 69.99 69.84 69.34 69.05 69.13 68.19 67.81 67.78 68.56 67.31 65.93
61.68 62.03 62.39 63.86 64.51 65.15 65.68 67.42 69.66 70.73 70.85 70.95 70.35 69.61 68.64 66.91 65.51 64.82 62.52 64.39 67.18 68.38 69.03 70.54 70.39 69.40 69.01 68.74 68.48 67.87 67.89 66.54 66.33
58.42 58.85 60.11 61.51 62.04 62.45 63.57 65.82 66.95 68.00 68.77 69.78 69.53 68.61 68.12 67.11 65.87 65.25 63.52 66.43 67.55 68.09 68.81 69.75 70.58 69.77 69.17 68.83 68.50 68.23 67.84 67.40 66.97
53.49 55.82 58.22 59.50 59.98 60.14 60.72 60.95 62.00 65.14 66.45 67.66 68.11 67.06 66.93 66.86 66.21 65.85 66.79 68.57 69.57 69.68 69.27 69.38 70.65 70.39 70.08 70.10 69.26 68.84 67.98 67.57 67.79
53.90 52.84 55.84 56.60 57.09 56.99 58.28 58.11 57.75 56.06 57.64 62.55 65.86 65.93 66.11 66.72 66.74 66.52 67.88 69.42 70.53 70.64 70.29 70.60 70.54 70.85 70.59 70.38 70.03 69.17 68.51 68.14 68.73
49.21 48.94 49.13 49.05 52.54 49.85 51.02 50.17 50.56 49.56 50.13 52.03 57.38 62.79 64.58 67.21 66.94 67.39 68.02 69.44 70.85 70.89 70.44 70.56 70.65 70.41 70.38 70.45 70.51 70.27 69.91 69.30 69.29
48.06 48.47 49.10 49.05 49.15 48.90 49.05 48.82 49.21 49.50 49.60 48.92 49.70 52.54 59.58 62.95 64.79 65.04 65.99 67.75 69.70 70.45 70.27 69.87 70.18 70.46 70.05 70.70 70.41 69.86 69.68 69.65 69.29
48.31 48.44 48.83 49.11 49.55 49.32 49.10 49.11 49.21 48.71 48.74 48.90 49.10 49.85 50.39 54.59 61.32 62.67 63.61 65.53 67.67 68.40 68.85 69.77 69.91 69.90 70.14 70.21 70.41 70.04 70.11 69.97 69.40
47.06 46.78 47.01 47.17 47.37 47.54 48.10 48.44 48.86 48.83 48.28 48.36 48.56 48.46 49.20 50.27 51.72 57.58 61.99 64.44 65.76 66.45 66.66 67.00 68.64 69.56 69.55 69.98 70.40 70.03 69.96 69.95 69.81
41.99 42.33 42.95 43.57 44.15 45.53 46.20 46.83 48.60 48.29 49.29 47.98 48.57 48.53 48.31 49.16 49.90 51.23 54.86 59.01 62.05 63.42 64.97 64.78 65.99 67.64 68.66 69.09 69.55 69.78 69.78 69.43 69.34
41.00 41.46 41.55 43.09 44.60 44.79 44.80 45.59 45.74 46.46 46.96 47.00 47.94 48.15 48.46 48.47 48.55 49.62 50.59 53.60 56.86 57.94 58.93 61.22 61.47 62.23 64.12 67.00 68.27 68.53 68.98 69.04 68.93
40.84 41.18 42.96 44.05 43.65 43.21 43.47 43.65 44.53 45.26 45.90 47.56 48.53 48.43 48.30 48.50 50.23 48.55 49.38 50.18 51.68 52.23 55.70 58.63 60.09 61.27 62.27 63.02 64.40 65.26 66.13 67.72 67.12
40.21 43.01 43.23 42.99 42.15 41.81 41.78 41.85 43.93 45.48 45.54 48.41 48.55 47.52 48.07 48.39 48.09 47.84 49.31 48.81 49.68 49.91 51.28 52.25 54.71 59.40 61.30 62.80 63.69 64.26 64.56 64.81 65.98
41.60 43.29 42.55 42.19 41.18 40.56 41.96 42.64 43.73 44.17 45.80 45.24 45.65 46.29 46.95 47.06 47.80 47.60 48.07 48.05 48.81 49.16 49.69 50.22 51.09 53.60 56.79 56.85 58.24 59.08 60.48 62.48 64.33
44.14 42.33 41.99 41.68 41.28 41.18 41.33 41.96 43.75 44.65 45.92 44.00 43.45 41.66 44.10 46.66 47.23 47.27 48.03 46.91 48.04 48.36 49.20 49.00 49.33 49.99 50.62 51.93 55.68 56.51 57.99 59.78 61.52
43.42 42.60 41.93 41.62 41.71 41.21 41.12 41.85 42.60 44.21 45.61 45.28 44.65 41.24 40.18 43.76 45.87 45.88 46.06 46.20 46.49 46.84 47.69 48.73 49.32 49.40 49.20 50.88 51.81 54.45 55.97 57.64 59.07
43.10 42.89 42.24 41.77 42.17 41.55 41.74 44.19 42.57 42.84 42.92 45.33 47.78 46.00 46.13 43.37 40.91 44.68 45.04 45.85 46.97 46.13 46.62 47.18 48.12 48.53 48.89 50.41 51.79 53.83 54.97 56.51 58.00
41.61 42.21 41.95 41.90 42.68 42.79 45.36 43.66 42.63 43.34 43.35 43.91 44.80 45.24 46.84 46.24 44.67 42.18 43.06 45.44 45.69 46.53 46.62 46.50 46.61 47.41 47.74 47.81 49.58 53.54 54.34 55.75 56.97